Regional Weather Roundup
Issued by NWS

Home | Current Version | Previous Version | Graphics & Text | Print | Product List | Glossary On
Versions: 1 2 3 4 5 6 7 8 9 10 11 12 13 14 15 16 17 18 19 20 21 22 23 24 25 26 27
000
ASUS45 KSLC 240910
RWRUT

UTAH REGIONAL WEATHER ROUNDUP
NATIONAL WEATHER SERVICE SALT LAKE CITY UT
300 AM MDT MON APR 24 2017

UTZ001>011-023>025-241000-

NORTHERN UTAH

CITY           SKY/WX    TMP DP  RH WIND       PRES   REMARKS
BRIGHAM CITY   PTCLDY    51  35  53 CALM      29.75F
HILL AFB       MOCLDY    46  34  63 E12       29.76F
LOGAN          PTCLDY    42  36  79 S3        29.76F
OGDEN          MOCLDY    46  35  65 S9        29.75F
SALT LAKE CITY MOCLDY    50  37  61 SE9       29.75F
TOOELE VALLEY  MOCLDY    48  36  61 S18       29.75F
WENDOVER       CLOUDY    50  33  52 W5        29.74F
HEBER CITY     CLEAR     34  32  93 CALM      29.82F
WEST JORDAN    MOCLDY    52  49  90 S13       29.78F

$$

UTZ011>015-024>027-241000-

CENTRAL/NORTHEAST UTAH

CITY           SKY/WX    TMP DP  RH WIND       PRES   REMARKS
PROVO AIRPORT  PTCLDY    42  39  89 CALM      29.81F
MOAB/CANYONLAN CLOUDY    52  32  46 NW5       29.78S
DELTA          PTCLDY    39  36  87 E5        29.80F
PRICE          MOCLDY    44  33  65 NE5       29.83F
RICHFIELD      CLEAR     37  39 100 CALM      29.85F
ROOSEVELT      CLOUDY    50  30  46 SW3       29.82R
VERNAL         CLEAR     46  38  73 N3        29.79R

$$

UTZ013>016-019>022-027-241000-

SOUTHERN UTAH

CITY           SKY/WX    TMP DP  RH WIND       PRES   REMARKS
BRYCE CANYON   PTCLDY    30  24  78 SW3       29.92F
CEDAR CITY     MOCLDY    42  30  62 S6        29.82F
MILFORD        PTCLDY    39  34  82 S7        29.80F WCI  34
ST GEORGE      SUNNY     60  26  27 S3        29.71F
HANKSVILLE     MOCLDY    52  32  46 CALM      29.81F
KANAB          CLEAR     41  27  56 NE3       29.85S
BLANDING       MOCLDY    47  24  39 NW10      29.90F

$$

REGIONAL REPORTS     COLORADO/ARIZONA

CITY           SKY/WX    TMP DP  RH WIND       PRES   REMARKS
CRAIG, CO      CLOUDY    45  39  79 CALM      29.84F
GRAND JUNCTION CLEAR     50  33  52 NW8       29.76R
RIFLE, CO      PTCLDY    51  38  60 SW7       29.78F
MONTROSE, CO   CLEAR     56  27  32 S3        29.82F
CORTEZ, CO     CLOUDY    51  26  37 E5        29.86R
COLORADO CITY    N/A     43  28  56 SE8       29.83F
PAGE, AZ       PTCLDY    62  26  25 CALM      29.77F
GRAND CANYON   CLEAR     41  23  48 SW6       29.91F
KINGMAN, AZ    CLEAR     65  17  15 S16       29.75F
FLAGSTAFF, AZ  CLEAR     49  21  33 W6        29.96S

$$

REGIONAL REPORTS    NEVADA/IDAHO/WYOMING

CITY           SKY/WX    TMP DP  RH WIND       PRES   REMARKS
LAS VEGAS, NV  MOCLDY    69  19  15 SW5       29.67R
ELY, NY        CLOUDY    33  28  81 S13       29.84F WCI  24
ELKO, NV       MOCLDY    44  27  51 W5        29.80F
POCATELLO, ID  MOCLDY    46  36  68 S9        29.75F
BURLEY, ID     CLOUDY    46  35  65 W6        29.73F
EVANSTON, WY   CLEAR     33  29  85 SW10      29.82F WCI  25
ROCK SPRINGS,  CLEAR     37  33  85 W7        29.82F WCI  32
KEMMERER, WY     N/A     32  30  93 N5        29.83F WCI  27

$$




USA.gov is the U.S. government's official web portal to all federal, state and local government web resources and services.